Location: Go�ngahuizen
(53.0821°N, 5.8849°E)
Time: 13:24:44
(UTC+00:00)

Cosmos 1908 - Visible Passes

Search period start: 06 August 2020 00:00
Search period end: 16 August 2020 00:00
Orbit: 513 x 529 km, 82.5° (Epoch: 05 August)

Date Brightness Start Highest point End Pass type
(mag) Time Alt. Az. Time Alt. Az. Time Alt. Az.
06 Aug 6.2 02:22:08 10° ESE 02:23:54 13° E 02:25:41 10° NE visible
07 Aug 6.3 02:09:22 10° E 02:10:37 11° E 02:11:53 10° ENE visible
09 Aug 3.5 03:15:13 10° S 03:19:07 74° E 03:23:03 10° NNE visible
10 Aug 3.7 03:01:54 10° S 03:05:46 65° E 03:09:40 10° NNE visible
11 Aug 3.9 02:48:36 10° S 02:52:26 56° E 02:56:18 10° NNE visible
12 Aug 4.1 02:35:19 10° S 02:39:05 49° E 02:42:54 10° NNE visible
13 Aug 4.3 02:22:03 10° SSE 02:25:46 43° E 02:29:31 10° NNE visible
14 Aug 4.5 02:09:08 12° SSE 02:12:27 38° E 02:16:06 10° NNE visible
15 Aug 4.7 01:56:13 14° SSE 01:59:07 34° E 02:02:41 10° NNE visible
15 Aug 4.5 03:31:39 10° SW 03:35:00 27° WNW 03:38:23 10° N visible
